Location: Boiro
(42.6475°N, 8.8834°W)
Time: 07:24:51
(UTC+02:00)

NANOSAT C BR1 - Pass Details

Date: 20 August 2022
Orbit: 582 x 600 km, 98.0° (Epoch: 25 September)

Event Time Altitude Azimuth Distance (km) Brightness Sun altitude
Rises 05:36:43 0° 2° (N) 2,837 ? -21.5°
Reaches altitude 10° 05:39:06 10° 351° (N) 1,927 ? -21.2°
Enters shadow 05:42:29 28° 297° (WNW) 1,113 ? -20.7°
